Year,Month,Day,Hour,Minute,Value (Times are PST for windgust in km/hr)
2013,10,08,00,00,9.60
2013,10,08,00,01,14.50
2013,10,08,00,02,11.30
2013,10,08,00,03,16.10
2013,10,08,00,04,11.30
2013,10,08,00,05,14.50
2013,10,08,00,06,12.90
2013,10,08,00,07,16.10
2013,10,08,00,08,8.10
2013,10,08,00,09,4.80
2013,10,08,00,10,8.10
2013,10,08,00,11,17.70
2013,10,08,00,12,6.40
2013,10,08,00,17,9.60
2013,10,08,00,18,4.80
2013,10,08,00,19,11.30
2013,10,08,00,20,14.50
2013,10,08,00,21,14.50
2013,10,08,00,22,3.20
2013,10,08,00,23,1.60
2013,10,08,00,24,3.20
2013,10,08,00,25,4.80
2013,10,08,00,26,1.60
2013,10,08,00,27,3.20
2013,10,08,00,28,1.60
2013,10,08,00,29,4.80
2013,10,08,00,30,1.60
2013,10,08,00,32,1.60
2013,10,08,00,33,1.60
2013,10,08,00,34,4.80
2013,10,08,00,35,4.80
2013,10,08,00,36,4.80
2013,10,08,00,39,3.20
2013,10,08,00,40,3.20
2013,10,08,00,41,4.80
2013,10,08,00,43,1.60
2013,10,08,00,45,8.10
2013,10,08,00,46,9.60
2013,10,08,00,47,4.80
2013,10,08,00,48,3.20
2013,10,08,00,49,1.60
2013,10,08,00,50,8.10
2013,10,08,00,51,9.60
2013,10,08,00,52,3.20
2013,10,08,00,53,4.80
2013,10,08,00,54,3.20
2013,10,08,00,55,3.20
2013,10,08,00,56,6.40
2013,10,08,00,57,9.60
2013,10,08,00,58,4.80
2013,10,08,00,59,6.40
2013,10,08,01,00,4.80
2013,10,08,01,03,3.20
2013,10,08,01,04,4.80
2013,10,08,01,05,3.20
2013,10,08,01,06,4.80
2013,10,08,01,07,4.80
2013,10,08,01,08,3.20
2013,10,08,01,09,3.20
2013,10,08,01,10,3.20
2013,10,08,01,11,9.60
2013,10,08,01,12,9.60
2013,10,08,01,13,6.40
2013,10,08,01,16,1.60
2013,10,08,01,17,4.80
2013,10,08,01,19,8.10
2013,10,08,01,20,11.30
2013,10,08,01,21,9.60
2013,10,08,01,22,4.80
2013,10,08,01,23,9.60
2013,10,08,01,24,9.60
2013,10,08,01,25,11.30
2013,10,08,01,26,9.60
2013,10,08,01,27,6.40
2013,10,08,01,28,4.80
2013,10,08,01,29,3.20
2013,10,08,01,30,1.60
2013,10,08,01,31,1.60
2013,10,08,01,32,9.60
2013,10,08,01,33,8.10
2013,10,08,01,34,6.40
2013,10,08,01,35,6.40
2013,10,08,01,36,11.30
2013,10,08,01,37,11.30
2013,10,08,01,38,8.10
2013,10,08,01,39,9.60
2013,10,08,01,40,1.60
2013,10,08,01,41,11.30
2013,10,08,01,42,11.30
2013,10,08,01,43,11.30
2013,10,08,01,44,16.10
2013,10,08,01,45,14.50
2013,10,08,01,46,6.40
2013,10,08,01,47,9.60
2013,10,08,01,48,11.30
2013,10,08,01,49,16.10
2013,10,08,01,50,11.30
2013,10,08,01,51,9.60
2013,10,08,01,52,8.10
2013,10,08,01,53,8.10
2013,10,08,01,54,9.60
2013,10,08,01,55,9.60
2013,10,08,01,56,11.30
2013,10,08,01,57,9.60
2013,10,08,01,58,6.40
2013,10,08,01,59,6.40
2013,10,08,02,00,4.80
2013,10,08,02,01,8.10
2013,10,08,02,02,6.40
2013,10,08,02,03,9.60
2013,10,08,02,04,9.60
2013,10,08,02,05,4.80
2013,10,08,02,06,4.80
2013,10,08,02,07,3.20
2013,10,08,02,08,9.60
2013,10,08,02,09,8.10
2013,10,08,02,10,8.10
2013,10,08,02,11,11.30
2013,10,08,02,12,6.40
2013,10,08,02,13,3.20
2013,10,08,02,14,8.10
2013,10,08,02,15,4.80
2013,10,08,02,16,9.60
2013,10,08,02,17,8.10
2013,10,08,02,18,4.80
2013,10,08,02,19,3.20
2013,10,08,02,20,4.80
2013,10,08,02,22,1.60
2013,10,08,02,23,1.60
2013,10,08,02,25,1.60
2013,10,08,02,26,4.80
2013,10,08,02,27,1.60
2013,10,08,02,28,4.80
2013,10,08,02,29,4.80
2013,10,08,02,30,3.20
2013,10,08,02,31,9.60
2013,10,08,02,32,4.80
2013,10,08,02,33,6.40
2013,10,08,02,34,6.40
2013,10,08,02,35,3.20
2013,10,08,02,36,1.60
2013,10,08,02,37,1.60
2013,10,08,02,38,1.60
2013,10,08,02,39,4.80
2013,10,08,02,40,6.40
2013,10,08,02,42,1.60
2013,10,08,02,45,1.60
2013,10,08,02,47,4.80
2013,10,08,02,48,3.20
2013,10,08,02,49,6.40
2013,10,08,02,50,6.40
2013,10,08,02,51,4.80
2013,10,08,02,52,4.80
2013,10,08,02,53,4.80
2013,10,08,02,54,4.80
2013,10,08,02,55,1.60
2013,10,08,02,56,6.40
2013,10,08,02,57,4.80
2013,10,08,02,58,6.40
2013,10,08,02,59,14.50
2013,10,08,03,00,14.50
2013,10,08,03,01,1.60
2013,10,08,03,02,6.40
2013,10,08,03,03,3.20
2013,10,08,03,05,4.80
2013,10,08,03,06,8.10
2013,10,08,03,07,4.80
2013,10,08,03,08,4.80
2013,10,08,03,09,3.20
2013,10,08,03,10,4.80
2013,10,08,03,11,3.20
2013,10,08,03,12,11.30
2013,10,08,03,13,3.20
2013,10,08,03,14,6.40
2013,10,08,03,15,9.60
2013,10,08,03,16,11.30
2013,10,08,03,17,6.40
2013,10,08,03,18,6.40
2013,10,08,03,19,22.50
2013,10,08,03,20,8.10
2013,10,08,03,21,1.60
2013,10,08,03,22,1.60
2013,10,08,03,23,4.80
2013,10,08,03,24,3.20
2013,10,08,03,25,4.80
2013,10,08,03,26,19.30
2013,10,08,03,27,20.90
2013,10,08,03,28,8.10
2013,10,08,03,29,6.40
2013,10,08,03,30,8.10
2013,10,08,03,31,16.10
2013,10,08,03,32,9.60
2013,10,08,03,33,3.20
2013,10,08,03,34,9.60
2013,10,08,03,35,9.60
2013,10,08,03,36,3.20
2013,10,08,03,38,6.40
2013,10,08,03,39,8.10
2013,10,08,03,41,6.40
2013,10,08,03,42,6.40
2013,10,08,03,43,11.30
2013,10,08,03,44,9.60
2013,10,08,03,45,9.60
2013,10,08,03,46,8.10
2013,10,08,03,47,3.20
2013,10,08,03,48,6.40
2013,10,08,03,49,4.80
2013,10,08,03,50,4.80
2013,10,08,03,51,4.80
2013,10,08,03,52,4.80
2013,10,08,03,53,4.80
2013,10,08,03,54,4.80
2013,10,08,03,55,14.50
2013,10,08,03,56,4.80
2013,10,08,03,57,6.40
2013,10,08,03,58,9.60
2013,10,08,03,59,8.10
2013,10,08,04,00,11.30
2013,10,08,04,01,6.40
2013,10,08,04,02,6.40
2013,10,08,04,03,11.30
2013,10,08,04,04,9.60
2013,10,08,04,05,6.40
2013,10,08,04,06,8.10
2013,10,08,04,07,6.40
2013,10,08,04,08,6.40
2013,10,08,04,09,6.40
2013,10,08,04,10,9.60
2013,10,08,04,11,11.30
2013,10,08,04,12,9.60
2013,10,08,04,13,11.30
2013,10,08,04,14,16.10
2013,10,08,04,15,8.10
2013,10,08,04,16,3.20
2013,10,08,04,17,11.30
2013,10,08,04,18,16.10
2013,10,08,04,19,9.60
2013,10,08,04,20,14.50
2013,10,08,04,21,9.60
2013,10,08,04,22,8.10
2013,10,08,04,23,16.10
2013,10,08,04,24,19.30
2013,10,08,04,25,9.60
2013,10,08,04,26,6.40
2013,10,08,04,27,6.40
2013,10,08,04,28,12.90
2013,10,08,04,29,11.30
2013,10,08,04,30,12.90
2013,10,08,04,31,11.30
2013,10,08,04,32,4.80
2013,10,08,04,33,4.80
2013,10,08,04,34,8.10
2013,10,08,04,35,8.10
2013,10,08,04,36,8.10
2013,10,08,04,37,8.10
2013,10,08,04,38,8.10
2013,10,08,04,39,12.90
2013,10,08,04,40,16.10
2013,10,08,04,41,19.30
2013,10,08,04,42,11.30
2013,10,08,04,43,8.10
2013,10,08,04,44,8.10
2013,10,08,04,45,9.60
2013,10,08,04,46,9.60
2013,10,08,04,47,16.10
2013,10,08,04,48,6.40
2013,10,08,04,49,6.40
2013,10,08,04,50,9.60
2013,10,08,04,51,4.80
2013,10,08,04,52,14.50
2013,10,08,04,53,9.60
2013,10,08,04,54,8.10
2013,10,08,04,55,8.10
2013,10,08,04,56,11.30
2013,10,08,04,57,11.30
2013,10,08,04,58,8.10
2013,10,08,04,59,8.10
2013,10,08,05,00,4.80
2013,10,08,05,01,8.10
2013,10,08,05,02,11.30
2013,10,08,05,03,9.60
2013,10,08,05,04,22.50
2013,10,08,05,05,11.30
2013,10,08,05,06,11.30
2013,10,08,05,07,17.70
2013,10,08,05,08,16.10
2013,10,08,05,09,8.10
2013,10,08,05,10,6.40
2013,10,08,05,11,9.60
2013,10,08,05,12,1.60
2013,10,08,05,13,6.40
2013,10,08,05,14,8.10
2013,10,08,05,15,6.40
2013,10,08,05,16,8.10
2013,10,08,05,17,11.30
2013,10,08,05,18,6.40
2013,10,08,05,19,6.40
2013,10,08,05,20,8.10
2013,10,08,05,21,4.80
2013,10,08,05,22,4.80
2013,10,08,05,23,9.60
2013,10,08,05,24,8.10
2013,10,08,05,25,11.30
2013,10,08,05,26,11.30
2013,10,08,05,27,9.60
2013,10,08,05,28,9.60
2013,10,08,05,29,8.10
2013,10,08,05,30,6.40
2013,10,08,05,31,8.10
2013,10,08,05,32,6.40
2013,10,08,05,33,11.30
2013,10,08,05,34,9.60
2013,10,08,05,35,6.40
2013,10,08,05,36,8.10
2013,10,08,05,37,4.80
2013,10,08,05,38,9.60
2013,10,08,05,39,9.60
2013,10,08,05,40,8.10
2013,10,08,05,41,6.40
2013,10,08,05,42,4.80
2013,10,08,05,43,1.60
2013,10,08,05,44,4.80
2013,10,08,05,45,8.10
2013,10,08,05,46,4.80
2013,10,08,05,47,17.70
2013,10,08,05,48,8.10
2013,10,08,05,49,4.80
2013,10,08,05,50,6.40
2013,10,08,05,51,6.40
2013,10,08,05,52,4.80
2013,10,08,05,53,11.30
2013,10,08,05,54,8.10
2013,10,08,05,55,8.10
2013,10,08,05,56,3.20
2013,10,08,06,00,8.10
2013,10,08,06,01,1.60
2013,10,08,06,02,1.60
2013,10,08,06,03,1.60
2013,10,08,06,04,1.60
2013,10,08,06,05,1.60
2013,10,08,06,10,4.80
2013,10,08,06,11,1.60
2013,10,08,06,14,14.50
2013,10,08,06,15,14.50
2013,10,08,06,16,3.20
2013,10,08,06,19,4.80
2013,10,08,06,20,3.20
2013,10,08,06,22,1.60
2013,10,08,06,23,1.60
2013,10,08,06,24,6.40
2013,10,08,06,25,4.80
2013,10,08,06,29,8.10
2013,10,08,06,30,4.80
2013,10,08,06,31,12.90
2013,10,08,06,32,11.30
2013,10,08,06,33,4.80
2013,10,08,06,34,6.40
2013,10,08,06,35,9.60
2013,10,08,06,36,4.80
2013,10,08,06,37,8.10
2013,10,08,06,38,9.60
2013,10,08,06,39,4.80
2013,10,08,06,40,8.10
2013,10,08,06,41,8.10
2013,10,08,06,42,9.60
2013,10,08,06,43,6.40
2013,10,08,06,44,4.80
2013,10,08,06,45,6.40
2013,10,08,06,46,8.10
2013,10,08,06,47,9.60
2013,10,08,06,48,8.10
2013,10,08,06,50,1.60
2013,10,08,06,51,14.50
2013,10,08,06,52,11.30
2013,10,08,06,53,6.40
2013,10,08,06,54,1.60
2013,10,08,06,55,1.60
2013,10,08,06,56,4.80
2013,10,08,06,57,3.20
2013,10,08,06,58,3.20
2013,10,08,06,59,6.40
2013,10,08,07,00,3.20
2013,10,08,07,01,11.30
2013,10,08,07,02,11.30
2013,10,08,07,03,4.80
2013,10,08,07,04,8.10
2013,10,08,07,05,19.30
2013,10,08,07,06,17.70
2013,10,08,07,07,6.40
2013,10,08,07,08,11.30
2013,10,08,07,09,3.20
2013,10,08,07,10,1.60
2013,10,08,07,11,14.50
2013,10,08,07,12,11.30
2013,10,08,07,13,14.50
2013,10,08,07,14,11.30
2013,10,08,07,15,6.40
2013,10,08,07,16,11.30
2013,10,08,07,17,4.80
2013,10,08,07,18,9.60
2013,10,08,07,19,4.80
2013,10,08,07,20,6.40
2013,10,08,07,21,4.80
2013,10,08,07,22,1.60
2013,10,08,07,23,12.90
2013,10,08,07,24,16.10
2013,10,08,07,25,6.40
2013,10,08,07,26,8.10
2013,10,08,07,27,4.80
2013,10,08,07,28,11.30
2013,10,08,07,29,4.80
2013,10,08,07,30,16.10
2013,10,08,07,31,9.60
2013,10,08,07,32,11.30
2013,10,08,07,33,14.50
2013,10,08,07,34,8.10
2013,10,08,07,35,16.10
2013,10,08,07,36,3.20
2013,10,08,07,37,4.80
2013,10,08,07,38,11.30
2013,10,08,07,39,16.10
2013,10,08,07,40,8.10
2013,10,08,07,41,3.20
2013,10,08,07,42,11.30
2013,10,08,07,43,11.30
2013,10,08,07,44,11.30
2013,10,08,07,45,8.10
2013,10,08,07,46,4.80
2013,10,08,07,47,8.10
2013,10,08,07,48,14.50
2013,10,08,07,49,20.90
2013,10,08,07,50,14.50
2013,10,08,07,51,11.30
2013,10,08,07,52,17.70
2013,10,08,07,53,9.60
2013,10,08,07,54,14.50
2013,10,08,07,55,16.10
2013,10,08,07,56,6.40
2013,10,08,07,57,4.80
2013,10,08,07,58,4.80
2013,10,08,07,59,4.80
2013,10,08,08,00,9.60
2013,10,08,08,01,16.10
2013,10,08,08,02,11.30
2013,10,08,08,03,9.60
2013,10,08,08,04,9.60
2013,10,08,08,05,22.50
2013,10,08,08,06,29.00
2013,10,08,08,07,16.10
2013,10,08,08,08,25.70
2013,10,08,08,09,27.40
2013,10,08,08,10,8.10
2013,10,08,08,11,19.30
2013,10,08,08,12,17.70
2013,10,08,08,13,17.70
2013,10,08,08,14,11.30
2013,10,08,08,15,6.40
2013,10,08,08,16,9.60
2013,10,08,08,17,11.30
2013,10,08,08,18,25.70
2013,10,08,08,19,14.50
2013,10,08,08,20,11.30
2013,10,08,08,21,8.10
2013,10,08,08,22,25.70
2013,10,08,08,23,14.50
2013,10,08,08,24,11.30
2013,10,08,08,25,17.70
2013,10,08,08,26,4.80
2013,10,08,08,27,16.10
2013,10,08,08,28,16.10
2013,10,08,08,29,6.40
2013,10,08,08,30,4.80
2013,10,08,08,31,4.80
2013,10,08,08,32,9.60
2013,10,08,08,33,17.70
2013,10,08,08,34,8.10
2013,10,08,08,35,20.90
2013,10,08,08,36,9.60
2013,10,08,08,37,6.40
2013,10,08,08,38,8.10
2013,10,08,08,39,19.30
2013,10,08,08,40,16.10
2013,10,08,08,41,6.40
2013,10,08,08,42,16.10
2013,10,08,08,43,11.30
2013,10,08,08,44,19.30
2013,10,08,08,45,19.30
2013,10,08,08,46,19.30
2013,10,08,08,47,12.90
2013,10,08,08,48,11.30
2013,10,08,08,49,17.70
2013,10,08,08,50,19.30
2013,10,08,08,51,4.80
2013,10,08,08,52,9.60
2013,10,08,08,53,11.30
2013,10,08,08,54,22.50
2013,10,08,08,55,16.10
2013,10,08,08,56,8.10
2013,10,08,08,57,6.40
2013,10,08,08,58,6.40
2013,10,08,08,59,16.10
2013,10,08,09,00,20.90
2013,10,08,09,01,8.10
2013,10,08,09,02,19.30
2013,10,08,09,03,4.80
2013,10,08,09,04,17.70
2013,10,08,09,05,11.30
2013,10,08,09,06,19.30
2013,10,08,09,07,22.50
2013,10,08,09,08,11.30
2013,10,08,09,09,16.10
2013,10,08,09,10,11.30
2013,10,08,09,11,16.10
2013,10,08,09,12,9.60
2013,10,08,09,13,17.70
2013,10,08,09,14,17.70
2013,10,08,09,15,14.50
2013,10,08,09,16,30.60
2013,10,08,09,17,24.20
2013,10,08,09,18,20.90
2013,10,08,09,19,4.80
2013,10,08,09,20,29.00
2013,10,08,09,21,19.30
2013,10,08,09,22,14.50
2013,10,08,09,23,14.50
2013,10,08,09,24,19.30
2013,10,08,09,25,14.50
2013,10,08,09,26,16.10
2013,10,08,09,27,35.40
2013,10,08,09,28,22.50
2013,10,08,09,29,8.10
2013,10,08,09,30,8.10
2013,10,08,09,31,11.30
2013,10,08,09,32,11.30
2013,10,08,09,33,9.60
2013,10,08,09,34,6.40
2013,10,08,09,35,9.60
2013,10,08,09,36,14.50
2013,10,08,09,37,19.30
2013,10,08,09,38,9.60
2013,10,08,09,39,37.00
2013,10,08,09,40,14.50
2013,10,08,09,41,24.20
2013,10,08,09,42,14.50
2013,10,08,09,43,20.90
2013,10,08,09,44,32.20
2013,10,08,09,45,22.50
2013,10,08,09,46,4.80
2013,10,08,09,47,9.60
2013,10,08,09,48,11.30
2013,10,08,09,49,19.30
2013,10,08,09,50,16.10
2013,10,08,09,51,14.50
2013,10,08,09,52,11.30
2013,10,08,09,53,24.20
2013,10,08,09,54,25.70
2013,10,08,09,55,12.90
2013,10,08,09,56,11.30
2013,10,08,09,57,6.40
2013,10,08,09,58,27.40
2013,10,08,09,59,19.30
2013,10,08,10,00,9.60
2013,10,08,10,01,11.30
2013,10,08,10,02,19.30
2013,10,08,10,03,16.10
2013,10,08,10,04,20.90
2013,10,08,10,05,17.70
2013,10,08,10,06,16.10
2013,10,08,10,07,14.50
2013,10,08,10,08,37.00
2013,10,08,10,09,25.70
2013,10,08,10,10,29.00
2013,10,08,10,11,29.00
2013,10,08,10,12,35.40
2013,10,08,10,13,20.90
2013,10,08,10,14,24.20
2013,10,08,10,15,24.20
2013,10,08,10,16,30.60
2013,10,08,10,17,19.30
2013,10,08,10,18,24.20
2013,10,08,10,19,41.80
2013,10,08,10,20,29.00
2013,10,08,10,21,25.70
2013,10,08,10,22,38.60
2013,10,08,10,23,22.50
2013,10,08,10,24,9.60
2013,10,08,10,25,22.50
2013,10,08,10,26,22.50
2013,10,08,10,27,24.20
2013,10,08,10,28,25.70
2013,10,08,10,29,37.00
2013,10,08,10,30,27.40
2013,10,08,10,31,29.00
2013,10,08,10,32,25.70
2013,10,08,10,33,19.30
2013,10,08,10,34,19.30
2013,10,08,10,35,27.40
2013,10,08,10,36,19.30
2013,10,08,10,37,9.60
2013,10,08,10,38,33.80
2013,10,08,10,39,27.40
2013,10,08,10,40,19.30
2013,10,08,10,41,24.20
2013,10,08,10,42,27.40
2013,10,08,10,43,27.40
2013,10,08,10,44,17.70
2013,10,08,10,45,22.50
2013,10,08,10,46,30.60
2013,10,08,10,47,32.20
2013,10,08,10,48,29.00
2013,10,08,10,49,29.00
2013,10,08,10,50,32.20
2013,10,08,10,51,29.00
2013,10,08,10,52,29.00
2013,10,08,10,53,25.70
2013,10,08,10,54,16.10
2013,10,08,10,55,17.70
2013,10,08,10,56,22.50
2013,10,08,10,57,25.70
2013,10,08,10,58,33.80
2013,10,08,10,59,17.70
2013,10,08,11,00,19.30
2013,10,08,11,01,40.20
2013,10,08,11,02,24.20
2013,10,08,11,03,20.90
2013,10,08,11,04,25.70
2013,10,08,11,05,14.50
2013,10,08,11,06,38.60
2013,10,08,11,07,33.80
2013,10,08,11,08,25.70
2013,10,08,11,09,29.00
2013,10,08,11,10,35.40
2013,10,08,11,11,27.40
2013,10,08,11,12,27.40
2013,10,08,11,13,16.10
2013,10,08,11,14,25.70
2013,10,08,11,15,30.60
2013,10,08,11,16,35.40
2013,10,08,11,17,27.40
2013,10,08,11,18,14.50
2013,10,08,11,19,25.70
2013,10,08,11,20,22.50
2013,10,08,11,21,27.40
2013,10,08,11,22,11.30
2013,10,08,11,23,20.90
2013,10,08,11,24,20.90
2013,10,08,11,25,30.60
2013,10,08,11,26,30.60
2013,10,08,11,27,30.60
2013,10,08,11,28,48.30
2013,10,08,11,29,22.50
2013,10,08,11,30,27.40
2013,10,08,11,31,22.50
2013,10,08,11,32,25.70
2013,10,08,11,33,20.90
2013,10,08,11,34,30.60
2013,10,08,11,35,22.50
2013,10,08,11,36,29.00
2013,10,08,11,37,25.70
2013,10,08,11,38,22.50
2013,10,08,11,39,22.50
2013,10,08,11,40,20.90
2013,10,08,11,41,17.70
2013,10,08,11,42,16.10
2013,10,08,11,43,17.70
2013,10,08,11,44,22.50
2013,10,08,11,45,17.70
2013,10,08,11,46,17.70
2013,10,08,11,47,29.00
2013,10,08,11,48,20.90
2013,10,08,11,49,25.70
2013,10,08,11,50,25.70
2013,10,08,11,51,22.50
2013,10,08,11,52,17.70
2013,10,08,11,53,19.30
2013,10,08,11,54,19.30
2013,10,08,11,55,30.60
2013,10,08,11,56,14.50
2013,10,08,11,57,19.30
2013,10,08,11,58,8.10
2013,10,08,11,59,8.10
2013,10,08,12,00,16.10
2013,10,08,12,01,20.90
2013,10,08,12,02,16.10
2013,10,08,12,03,20.90
2013,10,08,12,04,19.30
2013,10,08,12,05,19.30
2013,10,08,12,06,19.30
2013,10,08,12,07,19.30
2013,10,08,12,08,29.00
2013,10,08,12,09,19.30
2013,10,08,12,10,22.50
2013,10,08,12,11,17.70
2013,10,08,12,12,19.30
2013,10,08,12,13,9.60
2013,10,08,12,14,20.90
2013,10,08,12,15,24.20
2013,10,08,12,16,19.30
2013,10,08,12,17,29.00
2013,10,08,12,18,16.10
2013,10,08,12,19,16.10
2013,10,08,12,20,19.30
2013,10,08,12,21,16.10
2013,10,08,12,22,17.70
2013,10,08,12,23,25.70
2013,10,08,12,24,16.10
2013,10,08,12,25,29.00
2013,10,08,12,26,14.50
2013,10,08,12,27,11.30
2013,10,08,12,28,24.20
2013,10,08,12,29,29.00
2013,10,08,12,30,22.50
2013,10,08,12,31,19.30
2013,10,08,12,32,20.90
2013,10,08,12,33,16.10
2013,10,08,12,34,24.20
2013,10,08,12,35,29.00
2013,10,08,12,36,14.50
2013,10,08,12,37,16.10
2013,10,08,12,38,11.30
2013,10,08,12,39,25.70
2013,10,08,12,40,20.90
2013,10,08,12,41,14.50
2013,10,08,12,42,11.30
2013,10,08,12,43,17.70
2013,10,08,12,44,30.60
2013,10,08,12,45,25.70
2013,10,08,12,46,17.70
2013,10,08,12,47,24.20
2013,10,08,12,48,16.10
2013,10,08,12,49,12.90
2013,10,08,12,50,20.90
2013,10,08,12,51,11.30
2013,10,08,12,52,12.90
2013,10,08,12,53,17.70
2013,10,08,12,54,19.30
2013,10,08,12,55,11.30
2013,10,08,12,56,11.30
2013,10,08,12,57,9.60
2013,10,08,12,58,24.20
2013,10,08,12,59,16.10
2013,10,08,13,00,8.10
2013,10,08,13,01,6.40
2013,10,08,13,02,9.60
2013,10,08,13,03,4.80
2013,10,08,13,04,9.60
2013,10,08,13,05,9.60
2013,10,08,13,06,11.30
2013,10,08,13,07,9.60
2013,10,08,13,08,11.30
2013,10,08,13,09,19.30
2013,10,08,13,10,14.50
2013,10,08,13,11,25.70
2013,10,08,13,12,20.90
2013,10,08,13,13,30.60
2013,10,08,13,14,19.30
2013,10,08,13,15,19.30
2013,10,08,13,16,30.60
2013,10,08,13,17,25.70
2013,10,08,13,18,25.70
2013,10,08,13,19,12.90
2013,10,08,13,20,19.30
2013,10,08,13,21,30.60
2013,10,08,13,22,22.50
2013,10,08,13,23,19.30
2013,10,08,13,24,37.00
2013,10,08,13,25,19.30
2013,10,08,13,26,27.40
2013,10,08,13,27,19.30
2013,10,08,13,28,20.90
2013,10,08,13,29,17.70
2013,10,08,13,30,19.30
2013,10,08,13,31,29.00
2013,10,08,13,32,20.90
2013,10,08,13,33,17.70
2013,10,08,13,34,9.60
2013,10,08,13,35,9.60
2013,10,08,13,36,17.70
2013,10,08,13,37,17.70
2013,10,08,13,38,20.90
2013,10,08,13,39,17.70
2013,10,08,13,40,22.50
2013,10,08,13,41,22.50
2013,10,08,13,42,12.90
2013,10,08,13,43,11.30
2013,10,08,13,44,29.00
2013,10,08,13,45,16.10
2013,10,08,13,46,17.70
2013,10,08,13,47,20.90
2013,10,08,13,48,22.50
2013,10,08,13,49,22.50
2013,10,08,13,50,14.50
2013,10,08,13,51,9.60
2013,10,08,13,52,17.70
2013,10,08,13,53,8.10
2013,10,08,13,54,9.60
2013,10,08,13,55,24.20
2013,10,08,13,56,9.60
2013,10,08,13,57,20.90
2013,10,08,13,58,32.20
2013,10,08,13,59,20.90
2013,10,08,14,00,37.00
2013,10,08,14,01,17.70
2013,10,08,14,02,20.90
2013,10,08,14,03,14.50
2013,10,08,14,04,24.20
2013,10,08,14,05,14.50
2013,10,08,14,06,20.90
2013,10,08,14,07,27.40
2013,10,08,14,08,25.70
2013,10,08,14,09,17.70
2013,10,08,14,10,24.20
2013,10,08,14,11,24.20
2013,10,08,14,12,17.70
2013,10,08,14,13,27.40
2013,10,08,14,14,25.70
2013,10,08,14,15,27.40
2013,10,08,14,16,19.30
2013,10,08,14,17,16.10
2013,10,08,14,18,19.30
2013,10,08,14,19,20.90
2013,10,08,14,20,27.40
2013,10,08,14,21,20.90
2013,10,08,14,22,16.10
2013,10,08,14,23,8.10
2013,10,08,14,24,19.30
2013,10,08,14,25,29.00
2013,10,08,14,26,27.40
2013,10,08,14,27,32.20
2013,10,08,14,28,30.60
2013,10,08,14,29,22.50
2013,10,08,14,30,22.50
2013,10,08,14,31,24.20
2013,10,08,14,32,17.70
2013,10,08,14,33,17.70
2013,10,08,14,34,16.10
2013,10,08,14,35,16.10
2013,10,08,14,36,17.70
2013,10,08,14,37,16.10
2013,10,08,14,38,17.70
2013,10,08,14,39,17.70
2013,10,08,14,40,9.60
2013,10,08,14,41,14.50
2013,10,08,14,42,19.30
2013,10,08,14,43,14.50
2013,10,08,14,44,16.10
2013,10,08,14,45,22.50
2013,10,08,14,46,19.30
2013,10,08,14,47,25.70
2013,10,08,14,48,19.30
2013,10,08,14,49,24.20
2013,10,08,14,50,29.00
2013,10,08,14,51,24.20
2013,10,08,14,52,17.70
2013,10,08,14,53,9.60
2013,10,08,14,54,14.50
2013,10,08,14,55,19.30
2013,10,08,14,56,14.50
2013,10,08,14,57,22.50
2013,10,08,14,58,17.70
2013,10,08,14,59,16.10
2013,10,08,15,00,20.90
2013,10,08,15,01,25.70
2013,10,08,15,02,14.50
2013,10,08,15,03,22.50
2013,10,08,15,04,25.70
2013,10,08,15,05,22.50
2013,10,08,15,06,17.70
2013,10,08,15,07,14.50
2013,10,08,15,08,16.10
2013,10,08,15,09,16.10
2013,10,08,15,10,20.90
2013,10,08,15,11,20.90
2013,10,08,15,12,16.10
2013,10,08,15,13,20.90
2013,10,08,15,14,16.10
2013,10,08,15,15,22.50
2013,10,08,15,16,20.90
2013,10,08,15,17,24.20
2013,10,08,15,18,19.30
2013,10,08,15,19,17.70
2013,10,08,15,20,6.40
2013,10,08,15,21,11.30
2013,10,08,15,22,8.10
2013,10,08,15,23,9.60
2013,10,08,15,24,11.30
2013,10,08,15,25,9.60
2013,10,08,15,26,25.70
2013,10,08,15,27,8.10
2013,10,08,15,28,22.50
2013,10,08,15,29,22.50
2013,10,08,15,30,32.20
2013,10,08,15,31,8.10
2013,10,08,15,32,8.10
2013,10,08,15,33,17.70
2013,10,08,15,34,11.30
2013,10,08,15,35,8.10
2013,10,08,15,36,16.10
2013,10,08,15,37,8.10
2013,10,08,15,38,12.90
2013,10,08,15,39,19.30
2013,10,08,15,40,19.30
2013,10,08,15,41,20.90
2013,10,08,15,42,19.30
2013,10,08,15,43,6.40
2013,10,08,15,44,8.10
2013,10,08,15,45,14.50
2013,10,08,15,46,16.10
2013,10,08,15,47,22.50
2013,10,08,15,48,14.50
2013,10,08,15,49,14.50
2013,10,08,15,50,9.60
2013,10,08,15,51,8.10
2013,10,08,15,52,14.50
2013,10,08,15,53,9.60
2013,10,08,15,54,6.40
2013,10,08,15,55,8.10
2013,10,08,15,56,8.10
2013,10,08,15,57,9.60
2013,10,08,15,58,16.10
2013,10,08,15,59,11.30
2013,10,08,16,00,19.30
2013,10,08,16,01,24.20
2013,10,08,16,02,17.70
2013,10,08,16,03,11.30
2013,10,08,16,04,12.90
2013,10,08,16,05,8.10
2013,10,08,16,06,9.60
2013,10,08,16,07,14.50
2013,10,08,16,08,17.70
2013,10,08,16,09,17.70
2013,10,08,16,10,14.50
2013,10,08,16,11,19.30
2013,10,08,16,12,16.10
2013,10,08,16,13,11.30
2013,10,08,16,14,19.30
2013,10,08,16,15,16.10
2013,10,08,16,16,9.60
2013,10,08,16,17,8.10
2013,10,08,16,18,9.60
2013,10,08,16,19,14.50
2013,10,08,16,20,11.30
2013,10,08,16,21,9.60
2013,10,08,16,22,9.60
2013,10,08,16,23,14.50
2013,10,08,16,24,14.50
2013,10,08,16,25,9.60
2013,10,08,16,26,14.50
2013,10,08,16,27,9.60
2013,10,08,16,28,14.50
2013,10,08,16,29,9.60
2013,10,08,16,30,8.10
2013,10,08,16,31,9.60
2013,10,08,16,32,20.90
2013,10,08,16,33,22.50
2013,10,08,16,34,11.30
2013,10,08,16,35,24.20
2013,10,08,16,36,9.60
2013,10,08,16,37,20.90
2013,10,08,16,38,24.20
2013,10,08,16,39,17.70
2013,10,08,16,40,9.60
2013,10,08,16,41,4.80
2013,10,08,16,42,6.40
2013,10,08,16,43,1.60
2013,10,08,16,44,20.90
2013,10,08,16,45,24.20
2013,10,08,16,46,9.60
2013,10,08,16,47,30.60
2013,10,08,16,48,16.10
2013,10,08,16,49,16.10
2013,10,08,16,50,8.10
2013,10,08,16,51,17.70
2013,10,08,16,52,24.20
2013,10,08,16,53,25.70
2013,10,08,16,54,14.50
2013,10,08,16,55,27.40
2013,10,08,16,56,25.70
2013,10,08,16,57,24.20
2013,10,08,16,58,25.70
2013,10,08,16,59,17.70
2013,10,08,17,00,11.30
2013,10,08,17,01,12.90
2013,10,08,17,02,17.70
2013,10,08,17,03,14.50
2013,10,08,17,04,14.50
2013,10,08,17,05,14.50
2013,10,08,17,06,20.90
2013,10,08,17,07,11.30
2013,10,08,17,08,12.90
2013,10,08,17,09,3.20
2013,10,08,17,10,8.10
2013,10,08,17,11,17.70
2013,10,08,17,12,19.30
2013,10,08,17,13,14.50
2013,10,08,17,14,9.60
2013,10,08,17,15,9.60
2013,10,08,17,16,14.50
2013,10,08,17,17,25.70
2013,10,08,17,18,20.90
2013,10,08,17,19,20.90
2013,10,08,17,20,4.80
2013,10,08,17,21,17.70
2013,10,08,17,22,17.70
2013,10,08,17,23,11.30
2013,10,08,17,24,16.10
2013,10,08,17,25,14.50
2013,10,08,17,26,24.20
2013,10,08,17,27,17.70
2013,10,08,17,28,27.40
2013,10,08,17,29,20.90
2013,10,08,17,30,11.30
2013,10,08,17,31,11.30
2013,10,08,17,32,11.30
2013,10,08,17,33,16.10
2013,10,08,17,34,16.10
2013,10,08,17,35,17.70
2013,10,08,17,36,17.70
2013,10,08,17,37,6.40
2013,10,08,17,38,14.50
2013,10,08,17,39,17.70
2013,10,08,17,40,17.70
2013,10,08,17,41,24.20
2013,10,08,17,42,20.90
2013,10,08,17,43,16.10
2013,10,08,17,44,14.50
2013,10,08,17,45,17.70
2013,10,08,17,46,9.60
2013,10,08,17,47,8.10
2013,10,08,17,48,16.10
2013,10,08,17,49,22.50
2013,10,08,17,50,22.50
2013,10,08,17,51,20.90
2013,10,08,17,52,19.30
2013,10,08,17,53,14.50
2013,10,08,17,54,22.50
2013,10,08,17,55,11.30
2013,10,08,17,56,19.30
2013,10,08,17,57,17.70
2013,10,08,17,58,29.00
2013,10,08,17,59,24.20
2013,10,08,18,00,14.50
2013,10,08,18,01,22.50
2013,10,08,18,02,20.90
2013,10,08,18,03,17.70
2013,10,08,18,04,17.70
2013,10,08,18,05,11.30
2013,10,08,18,06,16.10
2013,10,08,18,07,12.90
2013,10,08,18,08,20.90
2013,10,08,18,09,17.70
2013,10,08,18,10,16.10
2013,10,08,18,11,16.10
2013,10,08,18,12,9.60
2013,10,08,18,13,16.10
2013,10,08,18,14,11.30
2013,10,08,18,15,9.60
2013,10,08,18,16,17.70
2013,10,08,18,17,22.50